Location: Newark
(41.0400°S, 62.7845°W)
Time: 20:57:32
(UTC+00:00)

Courier 1B Rocket - Pass Details

Date: 07 December 2021
Orbit: 920 x 1202 km, 28.2° (Epoch: 24 January)

Event Time Altitude Azimuth Distance (km) Brightness Sun altitude
Rises 13:02:46 0° 315° (NW) 3,844 7.9 48.2°
Reaches altitude 10° 13:06:05 10° 330° (NNW) 2,942 7.5 48.8°
Maximum altitude 13:11:28 22° 18° (NNE) 2,233 7.5 49.8°
Drops below altitude 10° 13:17:05 10° 65° (ENE) 3,086 8.5 50.8°
Sets 13:20:39 0° 79° (ENE) 4,080 8.9 51.5°
